{"data":{"norad_id":20776,"intl_designator":"1990-079A","name":"SKYNET 4C","alt_names":[],"object_type":"PAYLOAD","status":"ACTIVE","operator":null,"country":"UK","launch_date":"1990-08-30","launch_site_code":"FRGUI","launch_vehicle":null,"mission":null,"orbit_class":"UNKNOWN","rcs_meters":11.1055,"size_class":null,"mass_kg":null,"dimensions":null,"purposes":["comms"],"wikipedia_slug":null,"has_3d_model":false,"image_url":null,"decayed_at":null,"tle_current":{"epoch":"2026-05-25T04:22:51.690144Z","epoch_age_seconds":73483,"freshness":"FRESH","line1":"1 20776U 90079A   26145.18254271  .00000117  00000+0  00000+0 0  9992","line2":"2 20776  13.3469 349.9765 0002773  60.3170 291.5741  1.00276402130655","mean_motion":1.00276402,"eccentricity":0.0002773,"inclination_deg":13.3469,"raan_deg":349.9765,"arg_perigee_deg":60.317,"mean_anomaly_deg":291.5741,"bstar":0,"rev_number":13065,"period_min":1436.0307821974,"perigee_km":35773.608776877,"apogee_km":35796.992619424,"semimajor_km":42163.43769815,"source":"CELESTRAK","updated_at":"2026-05-25T13:38:13.803970Z"}}}